Retour au catalogue

STARLINK-31293

ActifCommunicationsVLEO
NORAD 58952·PAYLOAD·🇺🇸 United States

Lancé Feb 10, 2024 depuis Vandenberg Space Force Base

Loading…

Prochains Passages (prochaines 24 heures)

TLE

FraisSource: CelesTrak SupGP

Époque: Sep 14, 2026, 13:38 UTC

1 58952C 24027X   26257.56854167  .00059721  00000+0  19198-2 0  2578
2 58952  53.1576 150.9183 0001420  90.3171 354.3698 15.31683049    12

Suivez STARLINK-31293 en temps réel avec AllMySat

Download on the App Store